Regional Weather Roundup
Issued by NWS Newport/Morehead, NC

Current Version | Previous Version | Graphics & Text | Print | Product List | Glossary Off
Versions: 1 2 3 4 5 6 7 8 9 10 11 12 13 14 15 16 17 18 19 20 21 22 23 24 25 26 27 28 29 30 31 32 33 34 35 36 37 38 39 40 41 42 43 44 45 46 47 48 49 50

000
ASUS42 KMHX 232214
RWRMHX
WEATHER ROUNDUP FOR EASTERN NORTH CAROLINA
NATIONAL WEATHER SERVICE NEWPORT/MOREHEAD CITY NC
600 PM EDT SUN JUL 23 2017

NOTE: "FAIR" INDICATES FEW OR NO CLOUDS BELOW 12,000 FEET
WITH NO SIGNIFICANT WEATHER AND/OR OBSTRUCTIONS TO VISIBILITY

NCZ015>017-031-032-045>047-102-103-232300-
NORTH COAST

CITY           SKY/WX    TMP DP  RH WIND       PRES   REMARKS
EDENTON        CLOUDY    94  79  61 SW13      29.79R HX 112
ELIZABETH CITY CLOUDY    81  76  84 E7        29.79R
KITTY HAWK     LGT RAIN  73  70  89 SE5G16    29.81F
MANTEO         LGT RAIN  78  74  88 S15G22    29.82F

$$

NCZ045>047-081-094-103-104-232300-
CENTRAL COAST

CITY           SKY/WX    TMP DP  RH WIND       PRES   REMARKS
FRISCO         SUNNY     83  76  79 SW14G21   29.86S

$$

NCZ095-097-098-100-101-232300-
SOUTHERN COAST

CITY           SKY/WX    TMP DP  RH WIND       PRES   REMARKS
BEAUFORT       MOSUNNY   85  81  88 SW20      29.86F HX 100
CEDAR ISLAND   NOT AVBL
JACKSONVILLE   SUNNY     85  79  82 SW14G22   29.84F
PINEY ISLAND   CLEAR    N/A N/A N/A SW25G37   29.85F
WILMINGTON     MOSUNNY   87  77  72 SW15G22   29.85F


$$

NCZ011>013-027>030-043-044-078>080-089-090>093-098-232300-
COASTAL PLAIN

CITY           SKY/WX    TMP DP  RH WIND       PRES   REMARKS
AHOSKIE          N/A     85  80  85 N3        29.77F HX 100
CLINTON        NOT AVBL
ELIZABETHTOWN  NOT AVBL
GOLDSBORO      MOSUNNY   93  77  58 S9        29.77  HX 106
GREENVILLE     SUNNY     95  73  49 S16G23    29.80F HX 105
HAVELOCK       MOSUNNY   87  77  72 S17G25    29.86F
KENANSVILLE    RAIN      79  72  78 SW12G23   29.83F
KINSTON        SUNNY     93  75  55 S13G20    29.80F HX 104
NEW BERN       SUNNY     88  77  69 S15G24    29.84F HX 100
RICHLANDS      CLOUDY    86  78  77 S10       29.84F
ROCKY MOUNT    SUNNY     93  76  57 S12       29.75F HX 105
WASHINGTON     SUNNY     93  77  58 SW12      29.79F HX 107
WHITEVILLE     MOSUNNY   86  75  68 S15G23    29.85S

$$

AMZ130-135-150-152-154-156-158-170-250-252-270-ANZ085-086-088-633-658-670-232300-
MARINE OBSERVATIONS

STATION/POSITION TIME  TEMP    WIND        PRES    WAVE   SWELL
                       AIR SEA DIR/SP/G            HT/PER HT/PER
                 (UTC) (F)     (DEG/KT/KT) (MB)    (FT/S) (FT/S)
CHESAPEAKE LIGHT NOT AVBL
64 E VA BEACH    2150   80 81  230/ 14/ 17 1009.5    4/ 6   2/10
DUCK             2148   69 60  150/ 15/ 16 1009.2
2 E DUCK         2200      63                N/A     2/10
OREGON INLET     2148           90/  4/  7 1011.2
13E OREGON INLT  2148      76                N/A     5/ 5   3/ 5
HATTERAS CG      2148   81 78  210/ 12/ 18 1011.0
DIAMOND BUOY     2150   84 84  220/ 23/ 27 1011.0    7/ 7   2/ 9
CAPE LOOKOUT     2200   84     220/ 11/ 16 1011.0
BEAUFORT LAB     2148   84 81  210/ 13/ 18 1010.8
30 SE NEW RVR IN 2108   82 82  220/ 19/ 25 1012.0
30 SE NEW RVR IN 2143      82                N/A     7/ 6
27 SE WRIGHTSVLE 2108   83 83  210/ 17/ 23 1011.7
5 SE WRIGHTSVLE  2108   82 80  200/ 14/ 21 1011.7
225 S CAPE HAT   2150   83 84  230/ 17/ 19 1015.9    5/ 6   2/10
41 SE CHARLESTON 2200   82 84  210/ 21/ 25 1011.6

$$




USA.gov is the U.S. government's official web portal to all federal, state and local government web resources and services.